Location: Friaudour
(46.0460°N, 1.2873°E)
Time: 08:35:54
(UTC+00:00)

Resurs 1-4 Rocket - Pass Details

Date: 14 July 2020
Orbit: 799 x 814 km, 98.6° (Epoch: 14 August)

Event Time Altitude Azimuth Distance (km) Brightness Sun altitude
Rises 03:02:32 0° 2° (N) 3,349 6.2 -10.8°
Reaches altitude 10° 03:05:25 10° 347° (NNW) 2,411 5.1 -10.5°
Maximum altitude 03:09:15 21° 301° (WNW) 1,777 3.8 -10.0°
Drops below altitude 10° 03:13:03 10° 254° (WSW) 2,394 4.0 -9.6°
Enters shadow 03:13:26 - 251° (WSW) 2,504 4.1 -9.5°
